Regional Weather Roundup
Issued by NWS

Home | Current Version | Previous Version | Text Only | Print | Product List | Glossary On
Versions: 1 2 3 4 5 6 7 8 9 10 11 12 13 14 15 16 17 18 19 20 21 22 23 24 25 26 27 28 29 30 31 32 33 34 35 36 37 38 39 40 41 42 43 44 45 46 47 48 49 50
731
ASUS43 KMKX 260911
RWRWI

WISCONSIN REGIONAL WEATHER ROUNDUP
NATIONAL WEATHER SERVICE MILWAUKEE/SULLIVAN WI
400 AM CDT SUN MAR 26 2017

NOTE: "FAIR" INDICATES FEW OR NO CLOUDS BELOW 12,000 FEET WITH NO
SIGNIFICANT WEATHER AND/OR OBSTRUCTIONS TO VISIBILITY.

WIZ001-002-006>008-014>016-023>028-261000-
NORTHWEST WISCONSIN

CITY           SKY/WX    TMP DP  RH WIND       PRES   REMARKS
SUPERIOR ARPT  CLOUDY    33  32  96 NE9       30.04F WCI  25
ASHLAND        CLOUDY    32  31  96 NE3       30.04F FOG
HAYWARD        LGT RAIN  34  31  88 NE5       30.00F FOG     WCI  30
SIREN          DRIZZLE   34  32  93 CALM      30.00S
CUMBERLAND     CLOUDY    34  32  93 E5        29.97F FOG     WCI  30
RICE LAKE      CLOUDY    34  34  98 CALM      30.00F FOG
CHETEK         CLOUDY    34  34  99 E3        29.98F
LADYSMITH      CLOUDY    34  33  96 NE5       30.00F WCI  30
EAU CLAIRE     CLOUDY    35  34  96 E8        29.96F WCI  29
MENOMONIE      CLOUDY    35  35  99 NE5       29.97F FOG     WCI  31
NEW RICHMOND   LGT RAIN  35  34  99 NE3       29.97F
OSCEOLA        RAIN      36  36 100 E3        30.00F
$$

WIZ003>005-009-010-017-018-261000-
NORTH CENTRAL WISCONSIN

CITY           SKY/WX    TMP DP  RH WIND       PRES   REMARKS
MANITOWISH WTR MIX PCPN  32  32 100 E3        29.99F
ARBOR VITAE    CLOUDY    34  33  96 SE5       29.98F WCI  30
WOODRUFF       CLOUDY    34  33  96 SE5       29.98F WCI  30
RHINELANDER    CLOUDY    33  32  96 E8        29.99F WCI  26
EAGLE RIVER    CLOUDY    32  32 100 E6        29.99F WCI  26
LAND O LAKES   MIX PCPN  32  32 100 E3        30.01F
PHILLIPS       CLOUDY    32  32 100 E3        29.98F
TOMAHAWK       CLOUDY    32  31  96 E3        29.98F
MEDFORD        MIX PCPN  32  32  99 E8        29.96S WCI  25
MERRILL        CLOUDY    32  32 100 E7        29.99F WCI  26
$$

WIZ029-030-035-036-043>047-261000-
CENTRAL WISCONSIN

CITY           SKY/WX    TMP DP  RH WIND       PRES   REMARKS
WAUSAU         MIX PCPN  32  32 100 E10       29.97F WCI  24
MOSINEE        MIX PCPN  32  32 100 E13       29.98S WCI  22
MARSHFIELD     LGT RAIN  33  31  92 E10       29.95F FOG     WCI  25
STEVENS POINT  MIX PCPN  31  31 100 NE12      29.98S WCI  22
WAUPACA        DRIZZLE   36  34  94 NE6       29.99F WCI  31
WAUTOMA        CLOUDY   N/A N/A N/A NE12      29.96F
WISC RAPIDS    CLOUDY    34  34 100 E12       29.96F FOG     WCI  25
CAMP DOUGLAS   CLOUDY    36  36 100 E6        29.94F WCI  31
$$

WIZ011>013-019>022-031-037>040-048>050-261000-
NORTHEAST WISCONSIN

CITY           SKY/WX    TMP DP  RH WIND       PRES   REMARKS
ANTIGO         FOG       31  31 100 E8        29.98F VSB 1   WCI  23
SHAWANO        CLOUDY    34  33  93 NE9       30.02F FOG     WCI  27
OCONTO         CLOUDY    33  32  98 NE7       30.03F WCI  26
STURGEON BAY   NOT AVBL
GREEN BAY      CLOUDY    35  35 100 NE12      30.00F FOG     WCI  27
MANITOWOC      CLOUDY   N/A N/A N/A E7        30.00F HAZE
APPLETON       CLOUDY    34  34 100 NE10      29.97F FOG     WCI  26
CLINTONVILLE   CLOUDY    32  32 100 NE8       30.01S FOG     WCI  25
OSHKOSH        CLOUDY    36  35  96 NE10      29.96F FOG     WCI  28
$$

WIZ032>034-041-042-053>061-261000-
SOUTHWEST WISCONSIN

CITY           SKY/WX    TMP DP  RH WIND       PRES   REMARKS
LA CROSSE      LGT RAIN  38  36  92 NE5       29.93F WCI  34
SPARTA         CLOUDY    35  35  99 NE7       29.94F WCI  29
VIROQUA        CLOUDY    36  36 100 E12       29.89F WCI  27
BOSCOBEL       LGT RAIN  40  38  93 VRB5      29.90F FOG
PRAIRIE DU CHI DRIZZLE   39  38  97 NE7       29.89F WCI  34
PLATTEVILLE    CLOUDY    40  40 100 NE12      29.86F WCI  34
$$

WIZ056-057-062-063-064-067-068-261000-
SOUTH CENTRAL WISCONSIN

CITY           SKY/WX    TMP DP  RH WIND       PRES   REMARKS
REEDSBURG      RAIN      37  37 100 E7        29.92F WCI  31
BARABOO/DELLS  FOG       37  36  98 NE8       29.92F VSB 3/4 WCI  30
LONE ROCK      LGT RAIN  40  38  93 E8        29.91S FOG     WCI  34
MINERAL POINT  CLOUDY    41  41 100 E10       29.87F
MADISON        CLOUDY    40  39  97 NE8       29.90F WCI  34
MIDDLETON      CLOUDY    40  40 100 NE7       29.90F
WATERTOWN      CLOUDY    40  40 100 E10       29.91S FOG     WCI  33
MONROE         FOG       41  41 100 NE10      29.86F VSB 1/4
JANESVILLE     CLOUDY    43  43 100 E12       29.88F FOG
$$

WIZ051-052-058>065-066-070>072-261000-
SOUTHEAST WISCONSIN

CITY           SKY/WX    TMP DP  RH WIND       PRES   REMARKS
MILWAUKEE      LGT RAIN  39  38  96 NE12      29.94F FOG     WCI  32
WAUKESHA       CLOUDY    36  36 100 NE9       29.93F FOG     WCI  29
MILWAUKEE/TIMM RAIN      37  36  93 NE8       29.95F WCI  31
RACINE         FOG       39  38  96 NE9       29.94F VSB 3/4 WCI  33
KENOSHA        FOG       41  41 100 E9        29.92F VSB 1/4
FOND DU LAC    LGT RAIN  38  36  92 E9        29.96F FOG     WCI  31
SHEBOYGAN      CLOUDY    37  35  92 NE12      29.97F FOG     WCI  29
WEST BEND      RAIN      37  37 100 E7        29.95F VSB 3/4 WCI  32
JUNEAU         CLOUDY    38  38  99 NE8       29.93F FOG     WCI  33
$$

LSZ147-162-261000-
LAKE SUPERIOR

STATION/POSITION TIME  TEMP    WIND        PRES    WAVE
                       AIR SEA DIR/SP/G            HT/PER
                 (UTC) (F)     (DEG/KT/KT) (MB)    (FT/S)
DEVILS ISLAND    0900   33     110/  7/  9 1018.3F
PORT WING        0840   34      40/  5/  6 1017.6F
SAXON HARBOR     0830   32      70/  2/  3 1017.3F
$$

LMZ867-665-643>646-261000-
LAKE MICHIGAN

STATION/POSITION TIME  TEMP    WIND        PRES    WAVE
                       AIR SEA DIR/SP/G            HT/PER
                 (UTC) (F)     (DEG/KT/KT) (MB)    (FT/S)
CHAMBERS ISLAND  0840   33      40/  8/ 11 1017.3F
NORTHPORT PIER   0840   33      80/ 13/ 17 1017.6F
SISTER BAY       0836   34      90/  9/ 13   N/A
KEWAUNEE LAKESHO 0842   36      60/  8/ 12 1015.8F
SHEBOYGAN LAKESH 0900   36      30/ 12/ 13 1015.5F
PORT WASHINGTON  0840   38      30/ 11/ 15 1015.6F
MILWAUKEE LAKESH 0850   38      30/ 13/ 15   N/A
KENOSHA   LAKESH 0900   39      30/ 11/ 12 1013.2
$$

TC  - TEMPERATURE IN CELSIUS
VSB - VISIBILITY IN STATUTE MILES
WCI - WIND CHILL INDEX
HX  - HEAT INDEX





USA.gov is the U.S. government's official web portal to all federal, state and local government web resources and services.